DECAYED
Showing default

ORBWEAVER 2, 43785 (Decayed)

Orbit data source: Space-Track

ORBWEAVER 2, 43785 was a payload satellite owned by DARPA (US) in LEO that was launched on Mon, 03 Dec 2018 UTC via an FALCON 9 launch vehicle from the Air Force Western Test Range (AFWTR). Payloads include a variety of satellites, spacecraft, and rockets equipped with specific instruments for various scientific and technological missions. These include communications satellites like Starlink; space stations such as the ISS; scientific satellites like the Hubble; Earth observation satellites from companies like Planet Labs, Umbra, and HawkEye 360; GPS; miniature CubeSats for education and research; and military/defense satellites.

Not visible in the next 10 days
ORBWEAVER 2 details
Identifier
43785, 2018-099AD
Orbit
Decayed
Last TLE update3 months ago
Origin
Flag of USDARPA (US)
ManufacturerFirmamentum
MissionDecayed Defense Communications
Bus & MotorCUBESAT 3U?, Unknown motor
Mass5 kg wet, 5 kg dry
Launch date (UTC)
2018-12-03 (6 years ago)
Launch vehicle
FALCON 9
Launch site
Air Force Western Test Range (AFWTR)
Object type
Payload
Rocket body
Debris
Shape & HBRBox, 0.3 m
Radar Cross Section0.035 m², Medium (>0.1 m² and < 1m²)

Expand to show TLE details & history

TLE from 3 months ago
0 ORBWEAVER 2
1 43785U 18099AD  24280.13039146  .17149198  25641-5  21370-2 0  9995
2 43785  97.4710 354.8411 0013323 276.7056  83.2725 16.35879567320209
Epoch: 2024-10-06T03:07Z
Definitive object data (Epoch: 2024-10-06T03:07:45.822Z)
Latitude0.00004°
Longitude-67.3766°
Altitude179.018 km
Speed7.799 km/s
True Right ascension23h 39m 21s
True Declination0° 00' 00"
Sunlit
Object was in full shadow at TLE epoch
Visualization observer readout
Observer readout values are unavailable because the object's trajectory could not be propagated. This is usually caused when the trajectory data is faulty or the object's orbit has decayed.
Visualization observer readout
Observer readout values are unavailable because the object's trajectory could not be propagated. This is usually caused when the trajectory data is faulty or the object's orbit has decayed.
Orbital elements
Apogee altitude182.331 km
Perigee altitude164.874 km
Semi-major axis6,551.74 km
Eccentricity0.0013323
Inclination97.471°
RAAN354.8411°
Arg. of periapsis276.7056°
True anomaly83.42415°
Mean anomaly83.2725°
Eccentric anomaly83.34832°
Mean motion4.09268 °/min
BSTAR0.002137
Orbital period87.96 mins
Loading maneuver chart data...
Loading historical data...
Loading historical data...
Loading historical data...
Loading historical data...
Loading historical data...
Loading historical data...
Loading historical data...

ORBWEAVER 2 Visibility forecast

Observer location: undefined°, undefined

This satellite is decayed
Span
Click to sort rows by Start time (UTC) header in descending order
Start Az.
Max El. time (UTC)
Max El. Az.
Max El.
End time (UTC)
End Az.
|